Search for airport 
image banner adimage banner adimage banner ad
image banner ad

BIKF - Keflavik

Located in Keflavik, Iceland

ICAO - BIKF, IATA - KEF

Data provided by Airmate  

General information

Coordinates: N63°59'6" W22°36'20"
Elevation is 169 feet MSL.
 
View others Airports in Southern Peninsula

Operational data

Special qualification required
Current time UTC:
Current local time:
Weather
METAR: BIKF 241000Z 06005KT 030V090 9999 FEW025 SCT036 BKN060 07/05 Q0984
TAF: TAF BIKF 240756Z 2409/2509 09012KT 9999 -SHRA FEW010 SCT015 BKN040 TX08/2415Z TN05/2506Z TEMPO 2409/2509 3000 RADZ BKN005 OVC010 BECMG 2412/2414 03007KT
View NOTAMs / SUP AIP / TFR affecting this airport [VIEW]
Communications frequencies: [VIEW]

Runways:

RWY identifierQFULength (ft)Width (ft)SurfaceLDA (ft)
0110020197ASPH
19180°10020197ASPH
1090°10056197ASPH
28270°10056197ASPH

Airport contact information

Address: Keflavik Iceland

Satellite view of BIKF